EWG61AZ EDDL-EDDH

Flight info

Callsign EWG61AZ
Flight time 0h 39m
Altitude 35000
Route MEVEL1Z MEVEL Y850 MUBZI M105 RIBSO RIBSO7A
Aircraft A319/M-SDE3FGHIRWY/LB1

Departure

Time 2026-05-06 13:59
Airport Düsseldorf Airport (EDDL)

Arrival

Time 2026-05-06 14:38
Airport Hamburg Helmut Schmidt Airport (EDDH)
Time Latitude Longitude Altitude Speed Heading
2026-05-06 13:30 51.28358 6.77121 127 ft 0 kts 143°
2026-05-06 13:48 51.28370 6.77106 126 ft 3 kts 142°
2026-05-06 13:48 51.28389 6.77087 126 ft 4 kts 162°
2026-05-06 13:48 51.28412 6.77086 126 ft 4 kts 211°
2026-05-06 13:49 51.28431 6.77115 127 ft 4 kts 233°
2026-05-06 13:49 51.28434 6.77122 126 ft 0 kts 233°
2026-05-06 13:52 51.28434 6.77121 126 ft 0 kts 233°
2026-05-06 13:53 51.28427 6.77107 126 ft 4 kts 233°
2026-05-06 13:53 51.28405 6.77060 128 ft 5 kts 233°
2026-05-06 13:53 51.28379 6.77004 129 ft 8 kts 233°
2026-05-06 13:53 51.28350 6.76917 126 ft 11 kts 268°
2026-05-06 13:54 51.28411 6.76821 125 ft 14 kts 322°
2026-05-06 13:54 51.28460 6.76731 127 ft 8 kts 274°
2026-05-06 13:54 51.28431 6.76654 126 ft 8 kts 232°
2026-05-06 13:54 51.28398 6.76585 124 ft 8 kts 233°
2026-05-06 13:55 51.28363 6.76511 122 ft 9 kts 233°
2026-05-06 13:55 51.28322 6.76424 126 ft 11 kts 233°
2026-05-06 13:55 51.28271 6.76318 125 ft 13 kts 232°
2026-05-06 13:55 51.28211 6.76192 127 ft 16 kts 232°
2026-05-06 13:56 51.28146 6.76056 128 ft 15 kts 233°
2026-05-06 13:56 51.28080 6.75916 126 ft 16 kts 233°
2026-05-06 13:56 51.28010 6.75770 128 ft 16 kts 232°
2026-05-06 13:56 51.27948 6.75640 129 ft 12 kts 232°
2026-05-06 13:57 51.27896 6.75532 128 ft 13 kts 232°
2026-05-06 13:57 51.27841 6.75415 126 ft 14 kts 233°
2026-05-06 13:57 51.27871 6.75325 125 ft 11 kts 327°
2026-05-06 13:57 51.27956 6.75258 122 ft 17 kts 338°
2026-05-06 13:58 51.28020 6.75324 123 ft 14 kts 53°
2026-05-06 13:58 51.28188 6.75673 128 ft 72 kts 52°
2026-05-06 13:58 51.28618 6.76577 131 ft 130 kts 52°
2026-05-06 13:58 51.29202 6.77817 542 ft 140 kts 51°
2026-05-06 13:59 51.29792 6.79071 1195 ft 142 kts 48°
2026-05-06 13:59 51.30395 6.80324 1876 ft 143 kts 49°
2026-05-06 13:59 51.31005 6.81584 2559 ft 143 kts 49°
2026-05-06 13:59 51.31610 6.82849 3118 ft 143 kts 50°
2026-05-06 14:00 51.32215 6.84129 3507 ft 154 kts 50°
2026-05-06 14:00 51.32908 6.85592 3747 ft 177 kts 50°
2026-05-06 14:00 51.33692 6.87275 4044 ft 201 kts 52°
2026-05-06 14:00 51.34600 6.89175 4416 ft 226 kts 43°
2026-05-06 14:01 51.35977 6.90605 4877 ft 249 kts 18°
2026-05-06 14:01 51.37725 6.91168 5591 ft 262 kts
2026-05-06 14:01 51.39545 6.91637 6499 ft 269 kts
2026-05-06 14:01 51.41421 6.92134 7384 ft 275 kts
2026-05-06 14:02 51.43299 6.92636 8296 ft 279 kts
2026-05-06 14:02 51.45237 6.93152 9245 ft 284 kts
2026-05-06 14:02 51.47207 6.93676 10074 ft 291 kts
2026-05-06 14:02 51.49298 6.94087 10426 ft 314 kts
2026-05-06 14:03 51.51531 6.93856 10927 ft 328 kts 351°
2026-05-06 14:03 51.53799 6.93820 11624 ft 336 kts 11°
2026-05-06 14:03 51.55934 6.95407 12349 ft 343 kts 37°
2026-05-06 14:03 51.57704 6.98029 13095 ft 348 kts 43°
2026-05-06 14:04 51.59489 7.00689 13842 ft 351 kts 42°
2026-05-06 14:04 51.61325 7.03322 14559 ft 353 kts 41°
2026-05-06 14:04 51.63181 7.05935 15296 ft 355 kts 41°
2026-05-06 14:04 51.65032 7.08525 15974 ft 358 kts 40°
2026-05-06 14:05 51.66925 7.11180 16637 ft 362 kts 40°
2026-05-06 14:05 51.68829 7.13864 17309 ft 365 kts 40°
2026-05-06 14:05 51.70756 7.16595 17973 ft 370 kts 40°
2026-05-06 14:05 51.72696 7.19358 18636 ft 374 kts 40°
2026-05-06 14:06 51.74655 7.22155 19347 ft 379 kts 40°
2026-05-06 14:06 51.76623 7.24973 20060 ft 384 kts 41°
2026-05-06 14:06 51.78629 7.27850 20771 ft 389 kts 41°
2026-05-06 14:06 51.80663 7.30767 21373 ft 393 kts 41°
2026-05-06 14:07 51.82731 7.33731 21934 ft 397 kts 40°
2026-05-06 14:07 51.84809 7.36709 22483 ft 401 kts 40°
2026-05-06 14:07 51.86904 7.39712 23055 ft 404 kts 40°
2026-05-06 14:07 51.88996 7.42715 23564 ft 407 kts 41°
2026-05-06 14:08 51.91128 7.45786 24029 ft 410 kts 41°
2026-05-06 14:08 51.93264 7.48871 24491 ft 413 kts 41°
2026-05-06 14:08 51.95424 7.51992 25004 ft 415 kts 41°
2026-05-06 14:08 51.97587 7.55123 25530 ft 418 kts 41°
2026-05-06 14:09 51.99761 7.58272 26005 ft 420 kts 41°
2026-05-06 14:09 52.01920 7.61408 26487 ft 422 kts 41°
2026-05-06 14:09 52.04114 7.64601 26967 ft 423 kts 41°
2026-05-06 14:09 52.06310 7.67797 27506 ft 423 kts 41°
2026-05-06 14:10 52.08512 7.71008 27999 ft 425 kts 42°
2026-05-06 14:10 52.10716 7.74230 28477 ft 427 kts 42°
2026-05-06 14:10 52.12903 7.77433 28934 ft 429 kts 42°
2026-05-06 14:10 52.15126 7.80696 29373 ft 431 kts 43°
2026-05-06 14:11 52.17364 7.83982 29823 ft 433 kts 43°
2026-05-06 14:11 52.19610 7.87281 30187 ft 436 kts 43°
2026-05-06 14:11 52.21871 7.90600 30495 ft 439 kts 43°
2026-05-06 14:11 52.24152 7.93956 30765 ft 444 kts 42°
2026-05-06 14:12 52.26455 7.97349 31020 ft 449 kts 42°
2026-05-06 14:12 52.28753 8.00735 31367 ft 451 kts 42°
2026-05-06 14:12 52.33371 8.07563 31355 ft 438 kts 42°
2026-05-06 14:13 52.35603 8.10874 31244 ft 426 kts 42°
2026-05-06 14:13 52.37780 8.14107 30994 ft 419 kts 42°
2026-05-06 14:13 52.39927 8.17297 30824 ft 415 kts 42°
2026-05-06 14:13 52.42062 8.20473 30857 ft 413 kts 43°
2026-05-06 14:14 52.46291 8.26783 30865 ft 413 kts 43°
2026-05-06 14:14 52.50657 8.32953 30862 ft 416 kts 33°
2026-05-06 14:15 52.55653 8.37907 30867 ft 426 kts 31°
2026-05-06 14:15 52.58195 8.40420 30864 ft 437 kts 32°
2026-05-06 14:15 52.60808 8.43015 30338 ft 439 kts 32°
2026-05-06 14:16 52.63414 8.45614 29842 ft 435 kts 32°
2026-05-06 14:16 52.65991 8.48186 29284 ft 431 kts 32°
2026-05-06 14:16 52.68546 8.50735 28723 ft 427 kts 32°
2026-05-06 14:16 52.71085 8.53268 28161 ft 424 kts 32°
2026-05-06 14:17 52.73581 8.55761 27529 ft 423 kts 32°
2026-05-06 14:17 52.76101 8.58281 26921 ft 421 kts 32°
2026-05-06 14:17 52.78592 8.60779 26443 ft 416 kts 32°
2026-05-06 14:17 52.81060 8.63256 25919 ft 413 kts 32°
2026-05-06 14:18 52.83507 8.65722 25479 ft 408 kts 32°
2026-05-06 14:18 52.85896 8.68135 25002 ft 405 kts 32°
2026-05-06 14:18 52.88302 8.70567 24564 ft 402 kts 32°
2026-05-06 14:18 52.90678 8.72968 24131 ft 399 kts 33°
2026-05-06 14:19 52.93043 8.75359 23687 ft 396 kts 32°
2026-05-06 14:19 52.95451 8.77558 23201 ft 395 kts 24°
2026-05-06 14:19 52.98046 8.79003 22745 ft 391 kts 13°
2026-05-06 14:19 53.00709 8.79702 22307 ft 386 kts
2026-05-06 14:20 53.02470 8.80092 22019 ft 383 kts
2026-05-06 14:20 53.05953 8.80874 21435 ft 378 kts
2026-05-06 14:20 53.08543 8.81463 21004 ft 373 kts
2026-05-06 14:20 53.10246 8.81854 20715 ft 371 kts
2026-05-06 14:21 53.12797 8.82440 20284 ft 368 kts
2026-05-06 14:21 53.15320 8.83021 19856 ft 365 kts
2026-05-06 14:21 53.17835 8.83601 19428 ft 362 kts
2026-05-06 14:21 53.20290 8.84168 19007 ft 359 kts
2026-05-06 14:22 53.22757 8.84730 18587 ft 356 kts
2026-05-06 14:22 53.25200 8.85288 18166 ft 354 kts
2026-05-06 14:22 53.27637 8.85847 17700 ft 350 kts
2026-05-06 14:22 53.30045 8.86401 17293 ft 346 kts
2026-05-06 14:23 53.32418 8.86945 16883 ft 343 kts
2026-05-06 14:23 53.34723 8.87647 16478 ft 338 kts 17°
2026-05-06 14:23 53.36912 8.89017 16077 ft 335 kts 25°
2026-05-06 14:23 53.39049 8.90547 15670 ft 334 kts 25°
2026-05-06 14:24 53.41187 8.92069 15267 ft 333 kts 24°
2026-05-06 14:24 53.43282 8.93553 14865 ft 330 kts 24°
2026-05-06 14:24 53.45423 8.95068 14458 ft 327 kts 24°
2026-05-06 14:24 53.47515 8.96554 14060 ft 324 kts 25°
2026-05-06 14:25 53.49586 8.98032 13656 ft 323 kts 25°
2026-05-06 14:25 53.51653 8.99509 13230 ft 321 kts 25°
2026-05-06 14:25 53.53677 9.01030 12833 ft 317 kts 30°
2026-05-06 14:25 53.55484 9.03014 12450 ft 314 kts 37°
2026-05-06 14:26 53.57257 9.05131 12053 ft 310 kts 37°
2026-05-06 14:26 53.58875 9.07479 11663 ft 305 kts 53°
2026-05-06 14:26 53.59771 9.10621 11380 ft 297 kts 78°
2026-05-06 14:26 53.59773 9.14049 11016 ft 294 kts 103°
2026-05-06 14:27 53.59051 9.17260 10644 ft 294 kts 114°
2026-05-06 14:27 53.58199 9.20401 10295 ft 293 kts 114°
2026-05-06 14:27 53.57345 9.23457 10102 ft 285 kts 114°
2026-05-06 14:27 53.56497 9.26432 9758 ft 280 kts 114°
2026-05-06 14:28 53.55653 9.29385 9232 ft 279 kts 114°
2026-05-06 14:28 53.54815 9.32308 8832 ft 273 kts 114°
2026-05-06 14:28 53.54013 9.35108 8699 ft 258 kts 114°
2026-05-06 14:28 53.53250 9.37764 8581 ft 245 kts 114°
2026-05-06 14:29 53.52533 9.40266 8337 ft 237 kts 114°
2026-05-06 14:29 53.51820 9.42746 7898 ft 234 kts 114°
2026-05-06 14:29 53.51112 9.45205 7421 ft 233 kts 114°
2026-05-06 14:29 53.50403 9.47652 6933 ft 231 kts 114°
2026-05-06 14:30 53.49718 9.50023 6739 ft 218 kts 114°
2026-05-06 14:30 53.49075 9.52229 6512 ft 209 kts 114°
2026-05-06 14:30 53.48437 9.54401 6151 ft 207 kts 114°
2026-05-06 14:30 53.47793 9.56570 5824 ft 207 kts 114°
2026-05-06 14:31 53.47149 9.58723 5549 ft 205 kts 114°
2026-05-06 14:31 53.46568 9.60903 5261 ft 202 kts 103°
2026-05-06 14:31 53.46412 9.63228 5046 ft 201 kts 85°
2026-05-06 14:31 53.46712 9.65490 4833 ft 196 kts 68°
2026-05-06 14:32 53.47394 9.67395 4599 ft 191 kts 52°
2026-05-06 14:32 53.48238 9.69075 4345 ft 186 kts 51°
2026-05-06 14:32 53.49058 9.70712 4095 ft 180 kts 51°
2026-05-06 14:32 53.49854 9.72304 3853 ft 175 kts 51°
2026-05-06 14:33 53.50627 9.73850 3618 ft 169 kts 51°
2026-05-06 14:33 53.51364 9.75327 3395 ft 164 kts 51°
2026-05-06 14:33 53.52098 9.76797 3177 ft 160 kts 51°
2026-05-06 14:33 53.52798 9.78201 2959 ft 158 kts 51°
2026-05-06 14:34 53.53500 9.79610 2784 ft 155 kts 51°
2026-05-06 14:34 53.54196 9.81006 2540 ft 155 kts 51°
2026-05-06 14:34 53.54882 9.82384 2318 ft 153 kts 51°
2026-05-06 14:34 53.55562 9.83750 2106 ft 152 kts 50°
2026-05-06 14:35 53.56233 9.85100 1890 ft 144 kts 50°
2026-05-06 14:35 53.56853 9.86348 1708 ft 136 kts 49°
2026-05-06 14:35 53.57450 9.87548 1527 ft 132 kts 50°
2026-05-06 14:35 53.58039 9.88735 1343 ft 131 kts 49°
2026-05-06 14:36 53.58626 9.89916 1144 ft 131 kts 49°
2026-05-06 14:36 53.59211 9.91096 958 ft 131 kts 50°
2026-05-06 14:36 53.59794 9.92272 773 ft 130 kts 49°
2026-05-06 14:36 53.60378 9.93451 577 ft 132 kts 49°
2026-05-06 14:37 53.60960 9.94617 416 ft 129 kts 49°
2026-05-06 14:37 53.61544 9.95785 210 ft 130 kts 50°
2026-05-06 14:37 53.62113 9.96947 70 ft 128 kts 49°
2026-05-06 14:37 53.62651 9.98033 42 ft 105 kts 50°
2026-05-06 14:38 53.62997 9.98741 45 ft 43 kts 50°
2026-05-06 14:38 53.63093 9.99109 46 ft 25 kts 92°
2026-05-06 14:38 53.63085 9.99288 47 ft 10 kts 94°
2026-05-06 14:38 53.63085 9.99356 47 ft 0 kts 78°
2026-05-06 14:39 53.63085 9.99359 47 ft 1 kts 77°
2026-05-06 14:39 53.63099 9.99406 44 ft 7 kts 63°
2026-05-06 14:40 53.63137 9.99495 46 ft 11 kts 50°
2026-05-06 14:40 53.63193 9.99611 47 ft 12 kts 51°
2026-05-06 14:40 53.63220 9.99667 48 ft 4 kts 51°
2026-05-06 14:40 53.63248 9.99718 48 ft 7 kts 44°
2026-05-06 14:41 53.63292 9.99788 48 ft 10 kts 47°
2026-05-06 14:41 53.63345 9.99895 49 ft 10 kts 50°
2026-05-06 14:41 53.63397 10.00001 48 ft 12 kts 50°
2026-05-06 14:41 53.63428 10.00118 48 ft 10 kts 105°
2026-05-06 14:42 53.63367 10.00161 46 ft 10 kts 176°
2026-05-06 14:42 53.63306 10.00169 46 ft 8 kts 175°
2026-05-06 14:42 53.63254 10.00174 48 ft 7 kts 176°
2026-05-06 14:42 53.63204 10.00180 48 ft 7 kts 175°
2026-05-06 14:43 53.63157 10.00185 47 ft 6 kts 175°
2026-05-06 14:43 53.63113 10.00190 48 ft 6 kts 176°
2026-05-06 14:43 53.63081 10.00221 48 ft 5 kts 128°
2026-05-06 14:43 53.63077 10.00266 48 ft 4 kts 93°
2026-05-06 14:44 53.63076 10.00313 48 ft 4 kts 92°
2026-05-06 14:44 53.63074 10.00363 48 ft 4 kts 93°
2026-05-06 14:44 53.63073 10.00386 48 ft 0 kts 92°
2026-05-06 14:45 53.63073 10.00389 48 ft 0 kts 93°